Date String (YYYY-MM-DD hh:mm:ss) UTC,Instrument flags,Ambient pressure (hPa),Sample flow (lpm),Bypass flow (lpm),Sample temperature (°C),Ambient temperature (°C),ASC tube jacket temperature (°C),LED temperature (°C),Box temperature (°C),Sample RH (%),Span deviation,Mass concentration (μg/m³),Mass concentration (μg/m³),Mass concentration (μg/m³)
DateTimeUTC,F1_M11,P_M11,Q1_M11,Q2_M11,T1_M11,T2_M11,T3_M11,T4_M11,T5_M11,U1_M11,ZSPAN_M11,X0_M11,X2_M11,X1_M11
2023-03-01 00:00:00,,0813.6,5.00,0.00,21.9,20.2,00.0,30.7,23.5,09.8,0000.0,0002.15,0000.56,0000.29
2023-03-01 00:01:00,,0813.6,5.00,0.00,21.8,20.0,00.0,30.7,23.4,09.9,0000.0,0002.24,0000.58,0000.28
2023-03-01 00:02:00,,0813.6,5.01,0.00,21.8,19.9,00.0,30.6,23.4,09.9,0000.0,0002.15,0000.54,0000.27
2023-03-01 00:03:00,,0813.6,5.00,0.00,21.8,19.9,00.0,30.6,23.3,09.9,0000.0,0002.55,0000.66,0000.27
2023-03-01 00:04:00,,0813.7,5.00,0.00,21.7,19.8,00.0,30.6,23.3,09.8,0000.0,0003.04,0000.76,0000.27
2023-03-01 00:05:00,,0814.2,5.01,0.00,21.7,19.7,00.0,30.6,23.2,09.8,0000.0,0004.03,0000.84,0000.28
2023-03-01 00:06:00,,0814.2,5.00,0.00,21.6,19.6,00.0,30.5,23.2,09.8,0000.0,0004.94,0000.87,0000.28
2023-03-01 00:07:00,,0813.8,5.00,0.00,21.6,19.6,00.0,30.5,23.1,09.9,0000.0,0004.97,0000.89,0000.28
2023-03-01 00:08:00,,0813.9,5.00,0.00,21.6,19.9,00.0,30.5,23.2,10.0,0000.0,0004.96,0000.90,0000.28
2023-03-01 00:09:00,,0813.9,4.99,0.00,21.7,21.1,00.0,30.5,23.5,10.1,0000.0,0003.97,0000.90,0000.28
2023-03-01 00:10:00,,0814.0,4.97,0.00,21.8,22.3,00.0,30.5,23.8,10.1,0000.0,0003.92,0000.90,0000.28
2023-03-01 00:11:00,,0814.0,5.00,0.00,21.9,23.1,00.0,30.5,24.0,10.0,0000.0,0003.84,0000.88,0000.28
2023-03-01 00:12:00,,0814.0,4.97,0.00,22.0,22.5,00.0,30.6,24.0,09.9,0000.0,0003.81,0000.88,0000.28
2023-03-01 00:13:00,,0814.1,4.99,0.00,22.0,22.0,00.0,30.6,23.9,09.9,0000.0,0004.19,0000.90,0000.28
2023-03-01 00:14:00,,0814.3,4.99,0.00,22.0,21.5,00.0,30.6,23.8,09.9,0000.0,0004.12,0000.80,0000.28
2023-03-01 00:15:00,,0814.2,5.00,0.00,22.0,21.1,00.0,30.6,23.7,09.9,0000.0,0004.71,0000.70,0000.28
2023-03-01 00:16:00,,0813.9,5.01,0.00,22.0,20.8,00.0,30.7,23.6,10.0,0000.0,0003.94,0000.66,0000.28
2023-03-01 00:17:00,,0814.3,5.00,0.00,21.9,20.5,00.0,30.7,23.6,09.9,0000.0,0002.86,0000.63,0000.28
2023-03-01 00:18:00,,0814.0,5.00,0.00,21.9,20.4,00.0,30.7,23.5,09.9,0000.0,0002.91,0000.62,0000.28
2023-03-01 00:19:00,,0814.0,5.00,0.00,21.9,20.3,00.0,30.6,23.5,09.9,0000.0,0003.58,0000.72,0000.28
2023-03-01 00:20:00,,0814.1,5.00,0.00,21.8,20.2,00.0,30.6,23.5,09.9,0000.0,0005.04,0000.79,0000.28
2023-03-01 00:21:00,,0814.3,5.00,0.00,21.8,20.1,00.0,30.6,23.4,09.8,0000.0,0006.97,0000.85,0000.29
2023-03-01 00:22:00,,0814.3,5.01,0.00,21.8,20.0,00.0,30.6,23.4,09.9,0000.0,0007.07,0000.88,0000.29
2023-03-01 00:23:00,,0814.0,5.01,0.00,21.8,20.0,00.0,30.6,23.4,09.9,0000.0,0007.04,0000.87,0000.28
2023-03-01 00:24:00,,0814.1,5.00,0.00,21.7,19.9,00.0,30.6,23.3,09.9,0000.0,0006.81,0000.88,0000.28
2023-03-01 00:25:00,,0814.2,5.00,0.00,21.7,19.9,00.0,30.5,23.2,09.9,0000.0,0006.76,0000.93,0000.29
2023-03-01 00:26:00,,0814.1,5.00,0.00,21.7,19.9,00.0,30.5,23.2,09.9,0000.0,0005.75,0000.95,0000.30
2023-03-01 00:27:00,,0814.0,4.99,0.00,21.7,20.5,00.0,30.5,23.4,09.9,0000.0,0005.79,0000.95,0000.30
2023-03-01 00:28:00,,0814.1,4.99,0.00,21.8,21.8,00.0,30.5,23.7,09.7,0000.0,0005.82,0000.96,0000.30
2023-03-01 00:29:00,,0814.2,4.95,0.00,21.9,22.9,00.0,30.5,24.0,09.7,0000.0,0005.76,0000.96,0000.30
2023-03-01 00:30:00,,0814.3,5.01,0.00,22.1,23.2,00.0,30.6,24.2,09.6,0000.0,0005.43,0000.89,0000.30
2023-03-01 00:31:00,,0814.1,5.02,0.00,22.1,22.6,00.0,30.6,24.1,09.5,0000.0,0004.17,0000.82,0000.29
2023-03-01 00:32:00,,0814.4,5.00,0.00,22.1,22.0,00.0,30.7,24.0,09.6,0000.0,0001.87,0000.75,0000.29
2023-03-01 00:33:00,,0814.2,5.01,0.00,22.1,21.5,00.0,30.7,23.9,09.6,0000.0,0001.69,0000.70,0000.29
2023-03-01 00:34:00,,0814.5,4.99,0.00,22.1,21.2,00.0,30.7,23.8,09.6,0000.0,0001.72,0000.70,0000.29
2023-03-01 00:35:00,,0814.5,5.00,0.00,22.1,20.9,00.0,30.7,23.8,09.6,0000.0,0001.89,0000.74,0000.29
2023-03-01 00:36:00,,0814.3,5.00,0.00,22.0,20.7,00.0,30.7,23.7,09.5,0000.0,0003.78,0000.80,0000.28
2023-03-01 00:37:00,,0814.3,5.01,0.00,22.0,20.5,00.0,30.7,23.6,09.6,0000.0,0003.68,0000.77,0000.28
2023-03-01 00:38:00,,0814.5,4.99,0.00,22.0,20.4,00.0,30.7,23.6,09.6,0000.0,0003.95,0000.77,0000.28
2023-03-01 00:39:00,,0814.4,5.00,0.00,21.9,20.3,00.0,30.7,23.5,09.8,0000.0,0004.08,0000.77,0000.28
2023-03-01 00:40:00,,0814.4,5.00,0.00,21.9,20.2,00.0,30.7,23.5,09.7,0000.0,0004.10,0000.77,0000.27
2023-03-01 00:41:00,,0814.6,5.01,0.00,21.9,20.1,00.0,30.7,23.5,09.7,0000.0,0003.99,0000.76,0000.27
2023-03-01 00:42:00,,0814.6,5.01,0.00,21.8,20.0,00.0,30.7,23.4,09.7,0000.0,0004.00,0000.76,0000.27
2023-03-01 00:43:00,,0814.6,5.00,0.00,21.8,20.0,00.0,30.7,23.4,09.7,0000.0,0004.01,0000.76,0000.28
2023-03-01 00:44:00,,0814.5,5.01,0.00,21.8,19.9,00.0,30.6,23.4,09.8,0000.0,0004.03,0000.77,0000.28
2023-03-01 00:45:00,,0814.6,4.98,0.00,21.7,19.8,00.0,30.6,23.3,09.8,0000.0,0003.94,0000.75,0000.29
2023-03-01 00:46:00,,0814.7,5.00,0.00,21.7,20.3,00.0,30.6,23.3,09.8,0000.0,0003.57,0000.67,0000.29
2023-03-01 00:47:00,,0814.4,4.98,0.00,21.8,21.5,00.0,30.6,23.7,09.7,0000.0,0001.61,0000.58,0000.29
2023-03-01 00:48:00,,0814.6,5.01,0.00,22.0,22.7,00.0,30.6,24.0,09.6,0000.0,0001.63,0000.58,0000.29
2023-03-01 00:49:00,,0814.7,5.01,0.00,22.1,23.3,00.0,30.6,24.2,09.4,0000.0,0001.29,0000.58,0000.30
2023-03-01 00:50:00,,0815.0,5.00,0.00,22.2,22.7,00.0,30.7,24.1,09.4,0000.0,0001.23,0000.62,0000.30
2023-03-01 00:51:00,,0815.1,5.01,0.00,22.1,22.1,00.0,30.7,24.0,09.4,0000.0,0001.21,0000.61,0000.30
2023-03-01 00:52:00,,0815.1,5.01,0.00,22.1,21.6,00.0,30.8,23.9,09.4,0000.0,0001.14,0000.57,0000.30
2023-03-01 00:53:00,,0814.9,5.00,0.00,22.1,21.2,00.0,30.8,23.8,09.3,0000.0,0001.11,0000.56,0000.30
2023-03-01 00:54:00,,0815.0,5.00,0.00,22.1,20.9,00.0,30.8,23.7,09.3,0000.0,0001.07,0000.55,0000.30
2023-03-01 00:55:00,,0815.0,5.01,0.00,22.0,20.7,00.0,30.8,23.7,09.4,0000.0,0001.11,0000.54,0000.29
2023-03-01 00:56:00,,0815.0,4.99,0.00,22.0,20.5,00.0,30.8,23.6,09.6,0000.0,0001.22,0000.56,0000.30
2023-03-01 00:57:00,,0814.9,5.01,0.00,22.0,20.3,00.0,30.8,23.6,09.6,0000.0,0001.24,0000.57,0000.30
2023-03-01 00:58:00,,0814.8,5.01,0.00,21.9,20.2,00.0,30.7,23.5,09.6,0000.0,0001.45,0000.55,0000.29
2023-03-01 00:59:00,,0814.9,5.00,0.00,21.9,20.1,00.0,30.7,23.5,09.5,0000.0,0001.53,0000.55,0000.30
